This is the latest recevied weather packets stored in our database for station/object N4JTC. If no packets are shown the sender has not sent any weather packets the latest 1 day(s).
| Time | Temp. | Humidity | Pressure | Rain* | Wind** | Luminosity | Snow |
|---|---|---|---|---|---|---|---|
| 1778032803 | 22.78° C | 90% | 1016 hPa | 0 mm | 0.89 m/s, 204° | 0 W/m² | - |
| 1778032503 | 22.78° C | 90% | 1016.1 hPa | 0 mm | 0.89 m/s, 155° | 0 W/m² | - |
| 1778032203 | 22.78° C | 90% | 1016 hPa | 0 mm | 1.34 m/s, 128° | 0 W/m² | - |
| 1778031903 | 22.78° C | 90% | 1015.6 hPa | 0 mm | 1.79 m/s, 155° | 0 W/m² | - |
| 1778031603 | 22.78° C | 90% | 1015.8 hPa | 0 mm | 0.89 m/s, 166° | 0 W/m² | - |
| 1778031302 | 22.78° C | 90% | 1015.8 hPa | 0 mm | 1.34 m/s, 197° | 0 W/m² | - |
| 1778031003 | 22.78° C | 90% | 1015.9 hPa | 0 mm | 0.89 m/s, 177° | 0 W/m² | - |
| 1778030703 | 22.78° C | 89% | 1015.8 hPa | 0 mm | 0.89 m/s, 190° | 0 W/m² | - |
| 1778030402 | 22.78° C | 89% | 1015.7 hPa | 0 mm | 0.89 m/s, 115° | 0 W/m² | - |
| 1778030103 | 22.78° C | 90% | 1015.6 hPa | 0 mm | 0.45 m/s, 161° | 0 W/m² | - |
| 1778029803 | 22.78° C | 89% | 1015.5 hPa | 0 mm | 1.79 m/s, 188° | 0 W/m² | - |
| 1778029503 | 22.78° C | 89% | 1015.7 hPa | 0 mm | 1.34 m/s, 161° | 0 W/m² | - |
| 1778029203 | 22.78° C | 89% | 1015.5 hPa | 0 mm | 1.34 m/s, 190° | 0 W/m² | - |
| 1778028902 | 22.78° C | 89% | 1015.4 hPa | 0 mm | 1.34 m/s, 190° | 0 W/m² | - |
| 1778028603 | 22.78° C | 88% | 1015.5 hPa | 0 mm | 1.34 m/s, 160° | 0 W/m² | - |
| 1778028303 | 22.78° C | 88% | 1015.2 hPa | 0 mm | 1.34 m/s, 145° | 0 W/m² | - |
| 1778027703 | 22.78° C | 88% | 1015.4 hPa | 0 mm | 1.79 m/s, 115° | 0 W/m² | - |
| 1778027403 | 22.78° C | 88% | 1015.2 hPa | 0 mm | 0.89 m/s, 179° | 0 W/m² | - |
| 1778027103 | 23.33° C | 88% | 1015.2 hPa | 0 mm | 1.79 m/s, 170° | 0 W/m² | - |
| 1778026503 | 23.33° C | 87% | 1015.2 hPa | 0 mm | 1.34 m/s, 163° | 3 W/m² | - |
| 1778025903 | 23.33° C | 86% | 1015 hPa | 0 mm | 1.79 m/s, 159° | 12 W/m² | - |
| 1778025303 | 23.89° C | 85% | 1015.4 hPa | 0 mm | 2.24 m/s, 178° | 35 W/m² | - |
| 1778024703 | 23.89° C | 85% | 1015.1 hPa | 0 mm | 2.68 m/s, 193° | 42 W/m² | - |
| 1778024403 | 23.89° C | 85% | 1015.3 hPa | 0 mm | 2.24 m/s, 184° | 41 W/m² | - |
| 1778024103 | 23.89° C | 83% | 1015.5 hPa | 0 mm | 2.24 m/s, 180° | 37 W/m² | - |
* Rain latest hour (hover to see other rain measurements)
** Current wind speed in m/s (hover to see current wind gust speed)